owner,sensor,date,latitude,longitude,vertical_datum,direction_of_sea_water_velocity,sea_water_speed,upward_sea_water_velocity,qcFlag 
TABS,ioos:station:wmo:42044:1,2011-03-01T00:00:00Z,26.1914,-97.0507,2.0,197.7539283,18.36464266,-99999.0,'11111222,11111222,99999999' 
TABS,ioos:station:wmo:42044:1,2011-03-01T00:30:00Z,26.1914,-97.0507,2.0,195.8185359,22.37746411,-99999.0,'11111222,11111222,99999999' 
TABS,ioos:station:wmo:42044:1,2011-03-01T01:00:00Z,26.1914,-97.0507,2.0,193.1754803,18.73313909,-99999.0,'11111222,11111222,99999999' 
TABS,ioos:station:wmo:42044:1,2011-03-01T01:30:00Z,26.1914,-97.0507,2.0,192.5102108,20.31228446,-99999.0,'11111222,11111222,99999999' 
TABS,ioos:station:wmo:42044:1,2011-03-01T02:00:00Z,26.1914,-97.0507,2.0,251.5351319,24.53295335,-99999.0,'11111222,11111222,99999999' 
TABS,ioos:station:wmo:42044:1,2011-03-01T02:30:00Z,26.1914,-97.0507,2.0,268.8739563,19.34373284,-99999.0,'11111222,11111222,99999999' 
TABS,ioos:station:wmo:42044:1,2011-03-01T03:00:00Z,26.1914,-97.0507,2.0,275.919214,18.61925885,-99999.0,'11111222,11111222,99999999' 
TABS,ioos:station:wmo:42044:1,2011-03-01T03:30:00Z,26.1914,-97.0507,2.0,286.7673878,17.81749702,-99999.0,'11111222,11111222,99999999' 
TABS,ioos:station:wmo:42044:1,2011-03-01T04:00:00Z,26.1914,-97.0507,2.0,290.6343242,15.49392139,-99999.0,'11111222,11111222,99999999' 
TABS,ioos:station:wmo:42044:1,2011-03-01T04:30:00Z,26.1914,-97.0507,2.0,277.8416881,16.27214798,-99999.0,'11111222,11111222,99999999' 
TABS,ioos:station:wmo:42044:1,2011-03-01T05:00:00Z,26.1914,-97.0507,2.0,293.6573126,14.28003151,-99999.0,'11111222,11111222,99999999' 
TABS,ioos:station:wmo:42044:1,2011-03-01T05:30:00Z,26.1914,-97.0507,2.0,286.7482848,15.78977201,-99999.0,'11111222,11111222,99999999' 
TABS,ioos:station:wmo:42044:1,2011-03-01T06:00:00Z,26.1914,-97.0507,2.0,281.3203982,11.1570471,-99999.0,'11111222,11111222,99999999' 
TABS,ioos:station:wmo:42044:1,2011-03-01T06:30:00Z,26.1914,-97.0507,2.0,281.4980167,8.980206011,-99999.0,'11133222,11111222,99999999' 
TABS,ioos:station:wmo:42044:1,2011-03-01T07:00:00Z,26.1914,-97.0507,2.0,292.9863464,11.67716147,-99999.0,'11111222,11111222,99999999' 
TABS,ioos:station:wmo:42044:1,2011-03-01T07:30:00Z,26.1914,-97.0507,2.0,252.5729726,9.883648112,-99999.0,'11133222,11111222,99999999' 
TABS,ioos:station:wmo:42044:1,2011-03-01T08:00:00Z,26.1914,-97.0507,2.0,270.492217,9.320343341,-99999.0,'11133222,11111222,99999999' 
TABS,ioos:station:wmo:42044:1,2011-03-01T08:30:00Z,26.1914,-97.0507,2.0,260.7434743,10.50680732,-99999.0,'11111222,11111222,99999999' 
TABS,ioos:station:wmo:42044:1,2011-03-01T09:00:00Z,26.1914,-97.0507,2.0,261.8377178,12.74913723,-99999.0,'11111222,11111222,99999999' 
TABS,ioos:station:wmo:42044:1,2011-03-01T09:30:00Z,26.1914,-97.0507,2.0,271.1417924,13.05258978,-99999.0,'11111222,11111222,99999999' 
TABS,ioos:station:wmo:42044:1,2011-03-01T10:00:00Z,26.1914,-97.0507,2.0,261.7351043,12.66148885,-99999.0,'11111222,11111222,99999999' 
TABS,ioos:station:wmo:42044:1,2011-03-01T10:30:00Z,26.1914,-97.0507,2.0,250.9233819,13.27923567,-99999.0,'11111222,11111222,99999999' 
TABS,ioos:station:wmo:42044:1,2011-03-01T11:00:00Z,26.1914,-97.0507,2.0,263.1886684,13.57580569,-99999.0,'11111222,11111222,99999999' 
TABS,ioos:station:wmo:42044:1,2011-03-01T11:30:00Z,26.1914,-97.0507,2.0,260.0632124,13.90863041,-99999.0,'11111222,11111222,99999999' 
TABS,ioos:station:wmo:42044:1,2011-03-01T12:00:00Z,26.1914,-97.0507,2.0,261.6097134,15.28356307,-99999.0,'11111222,11111222,99999999' 
TABS,ioos:station:wmo:42044:1,2011-03-01T12:30:00Z,26.1914,-97.0507,2.0,260.3627687,15.113269,-99999.0,'11111222,11111222,99999999' 
TABS,ioos:station:wmo:42044:1,2011-03-01T13:00:00Z,26.1914,-97.0507,2.0,279.7785928,18.48859108,-99999.0,'11111222,11111222,99999999' 
TABS,ioos:station:wmo:42044:1,2011-03-01T13:30:00Z,26.1914,-97.0507,2.0,284.1194786,20.12805256,-99999.0,'11111222,11111222,99999999' 
TABS,ioos:station:wmo:42044:1,2011-03-01T14:00:00Z,26.1914,-97.0507,2.0,281.646601,18.37835956,-99999.0,'11111222,11111222,99999999' 
TABS,ioos:station:wmo:42044:1,2011-03-01T14:30:00Z,26.1914,-97.0507,2.0,279.9819876,18.86555857,-99999.0,'11111222,11111222,99999999' 
TABS,ioos:station:wmo:42044:1,2011-03-01T15:00:00Z,26.1914,-97.0507,2.0,285.4804857,17.42201481,-99999.0,'11111222,11111222,99999999' 
TABS,ioos:station:wmo:42044:1,2011-03-01T15:30:00Z,26.1914,-97.0507,2.0,282.3516919,15.75465011,-99999.0,'11111222,11111222,99999999' 
TABS,ioos:station:wmo:42044:1,2011-03-01T16:00:00Z,26.1914,-97.0507,2.0,284.9876839,16.51167466,-99999.0,'11111222,11111222,99999999' 
TABS,ioos:station:wmo:42044:1,2011-03-01T16:30:00Z,26.1914,-97.0507,2.0,280.9937796,13.84404926,-99999.0,'11111222,11111222,99999999' 
TABS,ioos:station:wmo:42044:1,2011-03-01T17:00:00Z,26.1914,-97.0507,2.0,288.912101,15.58108148,-99999.0,'11111222,11111222,99999999' 
TABS,ioos:station:wmo:42044:1,2011-03-01T17:30:00Z,26.1914,-97.0507,2.0,280.0147198,15.69918788,-99999.0,'11111222,11111222,99999999' 
TABS,ioos:station:wmo:42044:1,2011-03-01T18:00:00Z,26.1914,-97.0507,2.0,275.568362,16.38731827,-99999.0,'11111222,11111222,99999999' 
TABS,ioos:station:wmo:42044:1,2011-03-01T18:30:00Z,26.1914,-97.0507,2.0,279.7038798,14.06116994,-99999.0,'11111222,11111222,99999999' 
TABS,ioos:station:wmo:42044:1,2011-03-01T19:00:00Z,26.1914,-97.0507,2.0,281.89069,18.0063461,-99999.0,'11111222,11111222,99999999' 
TABS,ioos:station:wmo:42044:1,2011-03-01T19:30:00Z,26.1914,-97.0507,2.0,282.0181301,17.14578082,-99999.0,'11111222,11111222,99999999' 
TABS,ioos:station:wmo:42044:1,2011-03-01T20:00:00Z,26.1914,-97.0507,2.0,290.7881999,11.86221733,-99999.0,'11111222,11111222,99999999' 
TABS,ioos:station:wmo:42044:1,2011-03-01T20:30:00Z,26.1914,-97.0507,2.0,293.7372026,11.60143526,-99999.0,'11111222,11111222,99999999' 
TABS,ioos:station:wmo:42044:1,2011-03-01T21:00:00Z,26.1914,-97.0507,2.0,296.4721706,5.496262366,-99999.0,'11133222,11111222,99999999' 
TABS,ioos:station:wmo:42044:1,2011-03-01T21:30:00Z,26.1914,-97.0507,2.0,258.6138351,5.926634796,-99999.0,'11133222,11111222,99999999' 
TABS,ioos:station:wmo:42044:1,2011-03-01T22:00:00Z,26.1914,-97.0507,2.0,265.3261068,5.277546779,-99999.0,'11133222,11111222,99999999' 
TABS,ioos:station:wmo:42044:1,2011-03-01T22:30:00Z,26.1914,-97.0507,2.0,232.4896195,1.790111728,-99999.0,'11133222,11111222,99999999' 
TABS,ioos:station:wmo:42044:1,2011-03-01T23:00:00Z,26.1914,-97.0507,2.0,199.9334736,4.956984971,-99999.0,'11133222,11111222,99999999' 
TABS,ioos:station:wmo:42044:1,2011-03-01T23:30:00Z,26.1914,-97.0507,2.0,227.7980589,6.952078826,-99999.0,'11133222,11111222,99999999' 
TABS,ioos:station:wmo:42044:1,2011-03-02T00:00:00Z,26.1914,-97.0507,2.0,213.6897783,6.67026986,-99999.0,'11133222,11111222,99999999' 
TABS,ioos:station:wmo:42044:1,2011-03-02T00:30:00Z,26.1914,-97.0507,2.0,224.0739824,7.878197763,-99999.0,'11133222,11111222,99999999' 
TABS,ioos:station:wmo:42044:1,2011-03-02T01:00:00Z,26.1914,-97.0507,2.0,224.6431827,7.955105279,-99999.0,'11133222,11111222,99999999' 
TABS,ioos:station:wmo:42044:1,2011-03-02T01:30:00Z,26.1914,-97.0507,2.0,236.2538372,8.550707573,-99999.0,'11133222,11111222,99999999' 
TABS,ioos:station:wmo:42044:1,2011-03-02T02:00:00Z,26.1914,-97.0507,2.0,252.0110411,11.36557082,-99999.0,'11111222,11111222,99999999' 
TABS,ioos:station:wmo:42044:1,2011-03-02T02:30:00Z,26.1914,-97.0507,2.0,263.4064785,11.75775914,-99999.0,'11111222,11111222,99999999' 
TABS,ioos:station:wmo:42044:1,2011-03-02T03:00:00Z,26.1914,-97.0507,2.0,256.2173524,15.86683648,-99999.0,'11111222,11111222,99999999' 
TABS,ioos:station:wmo:42044:1,2011-03-02T03:30:00Z,26.1914,-97.0507,2.0,263.4515,15.52125317,-99999.0,'11111222,11111222,99999999' 
TABS,ioos:station:wmo:42044:1,2011-03-02T04:00:00Z,26.1914,-97.0507,2.0,282.4195155,15.29796392,-99999.0,'11111222,11111222,99999999' 
TABS,ioos:station:wmo:42044:1,2011-03-02T04:30:00Z,26.1914,-97.0507,2.0,291.6000646,12.65892965,-99999.0,'11111222,11111222,99999999' 
TABS,ioos:station:wmo:42044:1,2011-03-02T05:00:00Z,26.1914,-97.0507,2.0,297.7223231,12.40376153,-99999.0,'11111222,11111222,99999999' 
TABS,ioos:station:wmo:42044:1,2011-03-02T05:30:00Z,26.1914,-97.0507,2.0,303.6097116,9.845938249,-99999.0,'11133222,11111222,99999999' 
TABS,ioos:station:wmo:42044:1,2011-03-02T06:00:00Z,26.1914,-97.0507,2.0,315.9409728,9.045114704,-99999.0,'11133222,11111222,99999999' 
TABS,ioos:station:wmo:42044:1,2011-03-02T06:30:00Z,26.1914,-97.0507,2.0,317.2242717,11.66190379,-99999.0,'11111222,11111222,99999999' 
TABS,ioos:station:wmo:42044:1,2011-03-02T07:00:00Z,26.1914,-97.0507,2.0,332.0177856,10.48589529,-99999.0,'11111222,11111222,99999999' 
TABS,ioos:station:wmo:42044:1,2011-03-02T07:30:00Z,26.1914,-97.0507,2.0,330.4810368,8.503887346,-99999.0,'11133222,11111222,99999999' 
TABS,ioos:station:wmo:42044:1,2011-03-02T08:00:00Z,26.1914,-97.0507,2.0,336.7187872,7.261253335,-99999.0,'11133222,11111222,99999999' 
TABS,ioos:station:wmo:42044:1,2011-03-02T08:30:00Z,26.1914,-97.0507,2.0,341.9709731,7.592818976,-99999.0,'11133222,11111222,99999999' 
TABS,ioos:station:wmo:42044:1,2011-03-02T09:00:00Z,26.1914,-97.0507,2.0,347.1702106,8.871493674,-99999.0,'11133222,11111222,99999999' 
TABS,ioos:station:wmo:42044:1,2011-03-02T09:30:00Z,26.1914,-97.0507,2.0,347.0701171,6.658843743,-99999.0,'11133222,11111222,99999999' 
TABS,ioos:station:wmo:42044:1,2011-03-02T10:00:00Z,26.1914,-97.0507,2.0,359.5440446,6.280199041,-99999.0,'11133222,11144222,99999999' 
TABS,ioos:station:wmo:42044:1,2011-03-02T10:30:00Z,26.1914,-97.0507,2.0,11.49921034,7.725056634,-99999.0,'11133222,11111222,99999999' 
TABS,ioos:station:wmo:42044:1,2011-03-02T11:00:00Z,26.1914,-97.0507,2.0,19.89739555,5.700280695,-99999.0,'11133222,11111222,99999999' 
TABS,ioos:station:wmo:42044:1,2011-03-02T11:30:00Z,26.1914,-97.0507,2.0,4.969939565,7.618641611,-99999.0,'11133222,11111222,99999999' 
TABS,ioos:station:wmo:42044:1,2011-03-02T12:00:00Z,26.1914,-97.0507,2.0,19.45359814,7.116249012,-99999.0,'11133222,11111222,99999999' 
TABS,ioos:station:wmo:42044:1,2011-03-02T12:30:00Z,26.1914,-97.0507,2.0,34.32327449,6.5264462,-99999.0,'11133222,11111222,99999999' 
TABS,ioos:station:wmo:42044:1,2011-03-02T13:00:00Z,26.1914,-97.0507,2.0,39.87311491,4.351976562,-99999.0,'11133222,11111222,99999999' 
TABS,ioos:station:wmo:42044:1,2011-03-02T13:30:00Z,26.1914,-97.0507,2.0,44.85541956,5.600303563,-99999.0,'11133222,11111222,99999999' 
TABS,ioos:station:wmo:42044:1,2011-03-02T14:00:00Z,26.1914,-97.0507,2.0,45.41485447,6.837901725,-99999.0,'11133222,11111222,99999999' 
TABS,ioos:station:wmo:42044:1,2011-03-02T14:30:00Z,26.1914,-97.0507,2.0,26.08373484,5.322029688,-99999.0,'11133222,11111222,99999999' 
TABS,ioos:station:wmo:42044:1,2011-03-02T15:00:00Z,26.1914,-97.0507,2.0,60.87747062,4.910824778,-99999.0,'11133222,11111222,99999999' 
TABS,ioos:station:wmo:42044:1,2011-03-02T15:30:00Z,26.1914,-97.0507,2.0,71.31706274,3.652464921,-99999.0,'11133222,11111222,99999999' 
TABS,ioos:station:wmo:42044:1,2011-03-02T16:00:00Z,26.1914,-97.0507,2.0,68.85292191,4.878534616,-99999.0,'11133222,11111222,99999999' 
TABS,ioos:station:wmo:42044:1,2011-03-02T16:30:00Z,26.1914,-97.0507,2.0,82.15902847,4.764546148,-99999.0,'11133222,11111222,99999999' 
TABS,ioos:station:wmo:42044:1,2011-03-02T17:00:00Z,26.1914,-97.0507,2.0,89.2418788,5.290463118,-99999.0,'11133222,11111222,99999999' 
TABS,ioos:station:wmo:42044:1,2011-03-02T17:30:00Z,26.1914,-97.0507,2.0,92.42309171,4.494018247,-99999.0,'11133222,11111222,99999999' 
TABS,ioos:station:wmo:42044:1,2011-03-02T18:00:00Z,26.1914,-97.0507,2.0,104.5545857,5.093456587,-99999.0,'11133222,11111222,99999999' 
TABS,ioos:station:wmo:42044:1,2011-03-02T18:30:00Z,26.1914,-97.0507,2.0,107.6270301,5.382731649,-99999.0,'11133222,11111222,99999999' 
TABS,ioos:station:wmo:42044:1,2011-03-02T19:00:00Z,26.1914,-97.0507,2.0,122.3232358,5.348831648,-99999.0,'11133222,11111222,99999999' 
TABS,ioos:station:wmo:42044:1,2011-03-02T19:30:00Z,26.1914,-97.0507,2.0,134.8429208,5.161898875,-99999.0,'11133222,11111222,99999999' 
TABS,ioos:station:wmo:42044:1,2011-03-02T20:00:00Z,26.1914,-97.0507,2.0,136.0621151,5.721477082,-99999.0,'11133222,11111222,99999999' 
TABS,ioos:station:wmo:42044:1,2011-03-02T20:30:00Z,26.1914,-97.0507,2.0,158.2928743,6.759319492,-99999.0,'11133222,11111222,99999999' 
TABS,ioos:station:wmo:42044:1,2011-03-02T21:00:00Z,26.1914,-97.0507,2.0,161.2690397,5.511923439,-99999.0,'11133222,11111222,99999999' 
TABS,ioos:station:wmo:42044:1,2011-03-02T21:30:00Z,26.1914,-97.0507,2.0,194.4581571,10.53360812,-99999.0,'11111222,11111222,99999999' 
TABS,ioos:station:wmo:42044:1,2011-03-02T22:00:00Z,26.1914,-97.0507,2.0,211.0143579,11.58644898,-99999.0,'11111222,11111222,99999999' 
TABS,ioos:station:wmo:42044:1,2011-03-02T22:30:00Z,26.1914,-97.0507,2.0,210.1424813,11.60993109,-99999.0,'11111222,11111222,99999999' 
TABS,ioos:station:wmo:42044:1,2011-03-02T23:00:00Z,26.1914,-97.0507,2.0,209.9233991,11.52660401,-99999.0,'11111222,11111222,99999999' 
TABS,ioos:station:wmo:42044:1,2011-03-02T23:30:00Z,26.1914,-97.0507,2.0,215.0030251,12.46461391,-99999.0,'11111222,11111222,99999999' 
TABS,ioos:station:wmo:42044:1,2011-03-03T00:00:00Z,26.1914,-97.0507,2.0,217.9798427,12.90242225,-99999.0,'11111222,11111222,99999999' 
TABS,ioos:station:wmo:42044:1,2011-03-03T00:30:00Z,26.1914,-97.0507,2.0,213.1933151,13.44366394,-99999.0,'11111222,11111222,99999999' 
TABS,ioos:station:wmo:42044:1,2011-03-03T01:00:00Z,26.1914,-97.0507,2.0,215.983039,14.34771759,-99999.0,'11111222,11111222,99999999' 
TABS,ioos:station:wmo:42044:1,2011-03-03T01:30:00Z,26.1914,-97.0507,2.0,224.4788292,14.0012928,-99999.0,'11111222,11111222,99999999' 
TABS,ioos:station:wmo:42044:1,2011-03-03T02:00:00Z,26.1914,-97.0507,2.0,229.7829081,13.73743062,-99999.0,'11111222,11111222,99999999' 
TABS,ioos:station:wmo:42044:1,2011-03-03T02:30:00Z,26.1914,-97.0507,2.0,233.3394808,13.11408784,-99999.0,'11111222,11111222,99999999' 
TABS,ioos:station:wmo:42044:1,2011-03-03T03:00:00Z,26.1914,-97.0507,2.0,238.0921901,14.2654723,-99999.0,'11111222,11111222,99999999' 
TABS,ioos:station:wmo:42044:1,2011-03-03T03:30:00Z,26.1914,-97.0507,2.0,244.5562614,12.3365149,-99999.0,'11111222,11111222,99999999' 
TABS,ioos:station:wmo:42044:1,2011-03-03T04:00:00Z,26.1914,-97.0507,2.0,245.7737104,14.35410046,-99999.0,'11111222,11111222,99999999' 
TABS,ioos:station:wmo:42044:1,2011-03-03T04:30:00Z,26.1914,-97.0507,2.0,247.4565708,13.77232007,-99999.0,'11111222,11111222,99999999' 
TABS,ioos:station:wmo:42044:1,2011-03-03T05:00:00Z,26.1914,-97.0507,2.0,250.0713514,12.4984039,-99999.0,'11111222,11111222,99999999' 
TABS,ioos:station:wmo:42044:1,2011-03-03T05:30:00Z,26.1914,-97.0507,2.0,261.5577527,9.877013719,-99999.0,'11133222,11111222,99999999' 
TABS,ioos:station:wmo:42044:1,2011-03-03T06:00:00Z,26.1914,-97.0507,2.0,273.6306266,9.949964824,-99999.0,'11133222,11111222,99999999' 
TABS,ioos:station:wmo:42044:1,2011-03-03T06:30:00Z,26.1914,-97.0507,2.0,279.4339533,9.82284073,-99999.0,'11133222,11111222,99999999' 
TABS,ioos:station:wmo:42044:1,2011-03-03T07:00:00Z,26.1914,-97.0507,2.0,276.417276,7.426526779,-99999.0,'11133222,11111222,99999999' 
TABS,ioos:station:wmo:42044:1,2011-03-03T07:30:00Z,26.1914,-97.0507,2.0,295.2014856,7.139551807,-99999.0,'11133222,11111222,99999999' 
TABS,ioos:station:wmo:42044:1,2011-03-03T08:00:00Z,26.1914,-97.0507,2.0,298.3011105,5.315336302,-99999.0,'11133222,11111222,99999999' 
TABS,ioos:station:wmo:42044:1,2011-03-03T08:30:00Z,26.1914,-97.0507,2.0,320.8943947,4.613512761,-99999.0,'11133222,11111222,99999999' 
TABS,ioos:station:wmo:42044:1,2011-03-03T09:00:00Z,26.1914,-97.0507,2.0,334.0159006,1.323820229,-99999.0,'11133222,11111222,99999999' 
TABS,ioos:station:wmo:42044:1,2011-03-03T09:30:00Z,26.1914,-97.0507,2.0,304.6706578,1.459075049,-99999.0,'11133222,11111222,99999999' 
TABS,ioos:station:wmo:42044:1,2011-03-03T10:00:00Z,26.1914,-97.0507,2.0,314.7873217,1.902130385,-99999.0,'11133222,11111222,99999999' 
TABS,ioos:station:wmo:42044:1,2011-03-03T10:30:00Z,26.1914,-97.0507,2.0,17.92049847,2.112486686,-99999.0,'11133222,11111222,99999999' 
TABS,ioos:station:wmo:42044:1,2011-03-03T11:00:00Z,26.1914,-97.0507,2.0,52.19843995,4.796634237,-99999.0,'11133222,11111222,99999999' 
TABS,ioos:station:wmo:42044:1,2011-03-03T11:30:00Z,26.1914,-97.0507,2.0,66.2816212,4.052283307,-99999.0,'11133222,11111222,99999999' 
TABS,ioos:station:wmo:42044:1,2011-03-03T12:00:00Z,26.1914,-97.0507,2.0,109.2126269,4.892494251,-99999.0,'11133222,11111222,99999999' 
TABS,ioos:station:wmo:42044:1,2011-03-03T12:30:00Z,26.1914,-97.0507,2.0,107.2104019,5.475152966,-99999.0,'11133222,11111222,99999999' 
TABS,ioos:station:wmo:42044:1,2011-03-03T13:00:00Z,26.1914,-97.0507,2.0,113.5211155,6.063827174,-99999.0,'11133222,11111222,99999999' 
TABS,ioos:station:wmo:42044:1,2011-03-03T13:30:00Z,26.1914,-97.0507,2.0,114.9193471,8.876378766,-99999.0,'11133222,11111222,99999999' 
TABS,ioos:station:wmo:42044:1,2011-03-03T14:00:00Z,26.1914,-97.0507,2.0,122.3819326,8.869193875,-99999.0,'11133222,11111222,99999999' 
TABS,ioos:station:wmo:42044:1,2011-03-03T14:30:00Z,26.1914,-97.0507,2.0,120.6943764,8.756814489,-99999.0,'11133222,11111222,99999999' 
TABS,ioos:station:wmo:42044:1,2011-03-03T15:00:00Z,26.1914,-97.0507,2.0,114.9744745,11.43965909,-99999.0,'11111222,11111222,99999999' 
TABS,ioos:station:wmo:42044:1,2011-03-03T15:30:00Z,26.1914,-97.0507,2.0,125.3544071,9.4533063,-99999.0,'11133222,11111222,99999999' 
TABS,ioos:station:wmo:42044:1,2011-03-03T16:00:00Z,26.1914,-97.0507,2.0,127.5911405,10.8028561,-99999.0,'11111222,11111222,99999999' 
TABS,ioos:station:wmo:42044:1,2011-03-03T16:30:00Z,26.1914,-97.0507,2.0,129.8538186,12.14046128,-99999.0,'11111222,11111222,99999999' 
TABS,ioos:station:wmo:42044:1,2011-03-03T17:00:00Z,26.1914,-97.0507,2.0,130.9042339,11.48445906,-99999.0,'11111222,11111222,99999999' 
TABS,ioos:station:wmo:42044:1,2011-03-03T17:30:00Z,26.1914,-97.0507,2.0,143.0439604,14.65401651,-99999.0,'11111222,11111222,99999999' 
TABS,ioos:station:wmo:42044:1,2011-03-03T18:00:00Z,26.1914,-97.0507,2.0,141.1037753,13.63252361,-99999.0,'11111222,11111222,99999999' 
TABS,ioos:station:wmo:42044:1,2011-03-03T18:30:00Z,26.1914,-97.0507,2.0,148.166749,14.80717731,-99999.0,'11111222,11111222,99999999' 
TABS,ioos:station:wmo:42044:1,2011-03-03T19:00:00Z,26.1914,-97.0507,2.0,162.3154389,10.13913211,-99999.0,'11111222,11111222,99999999' 
TABS,ioos:station:wmo:42044:1,2011-03-03T19:30:00Z,26.1914,-97.0507,2.0,170.2889584,10.61205447,-99999.0,'11111222,11111222,99999999' 
TABS,ioos:station:wmo:42044:1,2011-03-03T20:00:00Z,26.1914,-97.0507,2.0,158.4868153,12.54387899,-99999.0,'11111222,11111222,99999999' 
TABS,ioos:station:wmo:42044:1,2011-03-03T20:30:00Z,26.1914,-97.0507,2.0,157.8167081,11.70649392,-99999.0,'11111222,11111222,99999999' 
TABS,ioos:station:wmo:42044:1,2011-03-03T21:00:00Z,26.1914,-97.0507,2.0,155.6846267,11.05022172,-99999.0,'11111222,11111222,99999999' 
TABS,ioos:station:wmo:42044:1,2011-03-03T21:30:00Z,26.1914,-97.0507,2.0,148.3835636,12.79976953,-99999.0,'11111222,11111222,99999999' 
TABS,ioos:station:wmo:42044:1,2011-03-03T22:00:00Z,26.1914,-97.0507,2.0,164.9313366,12.6551373,-99999.0,'11111222,11111222,99999999' 
TABS,ioos:station:wmo:42044:1,2011-03-03T22:30:00Z,26.1914,-97.0507,2.0,153.7348872,11.95418337,-99999.0,'11111222,11111222,99999999' 
TABS,ioos:station:wmo:42044:1,2011-03-03T23:00:00Z,26.1914,-97.0507,2.0,166.6096513,11.39989912,-99999.0,'11111222,11111222,99999999' 
TABS,ioos:station:wmo:42044:1,2011-03-03T23:30:00Z,26.1914,-97.0507,2.0,165.7085365,10.89723359,-99999.0,'11111222,11111222,99999999' 
TABS,ioos:station:wmo:42044:1,2011-03-04T00:00:00Z,26.1914,-97.0507,2.0,166.8849805,6.787024385,-99999.0,'11133222,11111222,99999999' 
TABS,ioos:station:wmo:42044:1,2011-03-04T00:30:00Z,26.1914,-97.0507,2.0,164.7512494,7.680397125,-99999.0,'11133222,11111222,99999999' 
TABS,ioos:station:wmo:42044:1,2011-03-04T01:00:00Z,26.1914,-97.0507,2.0,159.2161836,6.481789876,-99999.0,'11133222,11111222,99999999' 
TABS,ioos:station:wmo:42044:1,2011-03-04T01:30:00Z,26.1914,-97.0507,2.0,158.5700115,7.444682666,-99999.0,'11133222,11111222,99999999' 
TABS,ioos:station:wmo:42044:1,2011-03-04T02:00:00Z,26.1914,-97.0507,2.0,182.08235,5.503635162,-99999.0,'11133222,11111222,99999999' 
TABS,ioos:station:wmo:42044:1,2011-03-04T02:30:00Z,26.1914,-97.0507,2.0,172.9796171,4.745576888,-99999.0,'11133222,11111222,99999999' 
TABS,ioos:station:wmo:42044:1,2011-03-04T03:00:00Z,26.1914,-97.0507,2.0,167.1552271,3.14879342,-99999.0,'11133222,11111222,99999999' 
TABS,ioos:station:wmo:42044:1,2011-03-04T03:30:00Z,26.1914,-97.0507,2.0,176.8566537,3.465212836,-99999.0,'11133222,11111222,99999999' 
TABS,ioos:station:wmo:42044:1,2011-03-04T04:00:00Z,26.1914,-97.0507,2.0,230.8172786,1.883533913,-99999.0,'11133222,11111222,99999999' 
TABS,ioos:station:wmo:42044:1,2011-03-04T04:30:00Z,26.1914,-97.0507,2.0,231.5941839,2.462884488,-99999.0,'11133222,11111222,99999999' 
TABS,ioos:station:wmo:42044:1,2011-03-04T05:00:00Z,26.1914,-97.0507,2.0,247.9317311,1.197747887,-99999.0,'11133222,11111222,99999999' 
TABS,ioos:station:wmo:42044:1,2011-03-04T05:30:00Z,26.1914,-97.0507,2.0,352.8752108,1.128716085,-99999.0,'11133222,11111222,99999999' 
TABS,ioos:station:wmo:42044:1,2011-03-04T06:00:00Z,26.1914,-97.0507,2.0,250.9061317,0.27513633,-99999.0,'11133222,11111222,99999999' 
TABS,ioos:station:wmo:42044:1,2011-03-04T06:30:00Z,26.1914,-97.0507,2.0,359.1451151,1.340149245,-99999.0,'11133222,11144222,99999999' 
TABS,ioos:station:wmo:42044:1,2011-03-04T07:00:00Z,26.1914,-97.0507,2.0,26.56519952,2.97397041,-99999.0,'11133222,11111222,99999999' 
TABS,ioos:station:wmo:42044:1,2011-03-04T07:30:00Z,26.1914,-97.0507,2.0,55.91419271,3.211790778,-99999.0,'11133222,11111222,99999999' 
TABS,ioos:station:wmo:42044:1,2011-03-04T08:00:00Z,26.1914,-97.0507,2.0,59.51433758,1.438923209,-99999.0,'11133222,11111222,99999999' 
TABS,ioos:station:wmo:42044:1,2011-03-04T08:30:00Z,26.1914,-97.0507,2.0,71.68250323,6.172778953,-99999.0,'11133222,11111222,99999999' 
TABS,ioos:station:wmo:42044:1,2011-03-04T09:00:00Z,26.1914,-97.0507,2.0,95.75024721,7.18616031,-99999.0,'11133222,11111222,99999999' 
TABS,ioos:station:wmo:42044:1,2011-03-04T09:30:00Z,26.1914,-97.0507,2.0,83.31547944,6.614967876,-99999.0,'11133222,11111222,99999999' 
TABS,ioos:station:wmo:42044:1,2011-03-04T10:00:00Z,26.1914,-97.0507,2.0,92.16925252,9.246626412,-99999.0,'11133222,11111222,99999999' 
TABS,ioos:station:wmo:42044:1,2011-03-04T10:30:00Z,26.1914,-97.0507,2.0,86.69814205,8.854699317,-99999.0,'11133222,11111222,99999999' 
TABS,ioos:station:wmo:42044:1,2011-03-04T11:00:00Z,26.1914,-97.0507,2.0,83.23987911,7.985518142,-99999.0,'11133222,11111222,99999999' 
TABS,ioos:station:wmo:42044:1,2011-03-04T11:30:00Z,26.1914,-97.0507,2.0,89.68733928,7.33010914,-99999.0,'11133222,11111222,99999999' 
TABS,ioos:station:wmo:42044:1,2011-03-04T12:00:00Z,26.1914,-97.0507,2.0,103.3525695,7.317820714,-99999.0,'11133222,11111222,99999999' 
TABS,ioos:station:wmo:42044:1,2011-03-04T12:30:00Z,26.1914,-97.0507,2.0,104.011103,5.534663495,-99999.0,'11133222,11111222,99999999' 
TABS,ioos:station:wmo:42044:1,2011-03-04T13:00:00Z,26.1914,-97.0507,2.0,100.8082057,6.719196381,-99999.0,'11133222,11111222,99999999' 
TABS,ioos:station:wmo:42044:1,2011-03-04T13:30:00Z,26.1914,-97.0507,2.0,116.910602,6.672548239,-99999.0,'11133222,11111222,99999999' 
TABS,ioos:station:wmo:42044:1,2011-03-04T14:00:00Z,26.1914,-97.0507,2.0,99.59888062,6.896557112,-99999.0,'11133222,11111222,99999999' 
TABS,ioos:station:wmo:42044:1,2011-03-04T14:30:00Z,26.1914,-97.0507,2.0,101.1906468,6.595399912,-99999.0,'11133222,11111222,99999999' 
TABS,ioos:station:wmo:42044:1,2011-03-04T15:00:00Z,26.1914,-97.0507,2.0,123.5216848,6.609281353,-99999.0,'11133222,11111222,99999999' 
TABS,ioos:station:wmo:42044:1,2011-03-04T15:30:00Z,26.1914,-97.0507,2.0,137.2338918,7.437344956,-99999.0,'11133222,11111222,99999999' 
TABS,ioos:station:wmo:42044:1,2011-03-04T16:00:00Z,26.1914,-97.0507,2.0,119.4089848,4.867206591,-99999.0,'11133222,11111222,99999999' 